Regional Weather Roundup
Issued by NWS Little Rock, AR

Home | Current Version | Previous Version | Text Only | Print | Product List | Glossary On
Versions: 1 2 3 4 5 6 7 8 9 10 11 12 13 14 15 16 17 18 19 20 21 22 23 24 25 26 27 28 29 30 31 32 33 34 35 36 37 38 39 40 41 42 43 44 45 46 47 48 49 50
000
ASUS44 KLZK 270805
RWRLZK

WEATHER ROUNDUP FOR ARKANSAS
NATIONAL WEATHER SERVICE LITTLE ROCK AR
300 AM CDT THU JUL 27 2017

NOTE: "FAIR" INDICATES FEW OR NO CLOUDS BELOW 12,000 FEET WITH NO
SIGNIFICANT WEATHER AND/OR OBSTRUCTIONS TO VISIBILITY.

ARZ001-003-010-029-270900-
NORTHWEST ARKANSAS

CITY           SKY/WX    TMP DP  RH WIND       PRES   REMARKS
FAYETTEVILLE   PTCLDY    74  73  97 S3        30.01F
FORT SMITH     CLEAR     79  74  84 E3        29.98S
HARRISON       CLEAR     78  69  73 S3        30.02F
BENTONVILLE    CLOUDY    79  70  73 SW3       30.00F
ROGERS         CLOUDY    80  71  74 S12       30.00F
SILOAM SPGS    CLOUDY    79  70  73 S9        29.99F
$$

ARZ004-005-016-270900-
NORTH CENTRAL ARKANSAS

CITY           SKY/WX    TMP DP  RH WIND       PRES   REMARKS
BATESVILLE     CLEAR     81  72  74 SW8       29.99S
FLIPPIN        CLEAR     77  66  69 SW3       29.97S
MTN HOME       CLEAR     75  71  87 CALM      29.99F
$$

ARZ040-041-270900-
WEST CENTRAL ARKANSAS

CITY           SKY/WX    TMP DP  RH WIND       PRES   REMARKS
MENA           CLEAR     73  73 100 CALM      30.04S
MOUNT IDA      CLEAR     74  71  91 CALM      30.00F
$$

ARZ009-017-025-026-028-270900-
NORTHEAST ARKANSAS

CITY           SKY/WX    TMP DP  RH WIND       PRES   REMARKS
JONESBORO      CLEAR     80  77  90 SW9       29.98S HX  87
WALNUT RIDGE   CLEAR     79  73  83 S7        29.98S
BLYTHEVILLE    CLEAR     79  75  87 SW6       29.98F
$$

ARZ022-023-033-042-044-270900-
CENTRAL ARKANSAS

CITY           SKY/WX    TMP DP  RH WIND       PRES   REMARKS
LITTLE ROCK    CLEAR     79  76  90 SW7       29.99F
N LITTLE ROCK    N/A     80  74  81 SW5       29.97F
JACKSONVILLE   CLEAR     79  75  89 S3        29.99S
CONWAY           N/A     79  73  83 CALM      29.97F
SEARCY         CLEAR     77  76  96 S6        30.00F
HOT SPRINGS    CLEAR     81  75  82 CALM      30.01F HX  87
RUSSELLVILLE   CLEAR     74  73  97 CALM      29.98F
CLINTON        FAIR      73  72  94 CALM      30.00S FOG
$$

ARZ036-270900-
EAST ARKANSAS

CITY           SKY/WX    TMP DP  RH WIND       PRES   REMARKS
WEST MEMPHIS   MOCLDY    78  75  90 S7        29.98F
$$

ARZ050-053-066-070-073-270900-
SOUTHWEST ARKANSAS

CITY           SKY/WX    TMP DP  RH WIND       PRES   REMARKS
ARKADELPHIA    FAIR      76  75  97 CALM      30.01F
CAMDEN         MOCLDY    79  72  78 S5        30.01S
TEXARKANA      PTCLDY    79  74  84 SW6       30.02S
EL DORADO      PTCLDY    78  74  87 SW6       30.03S
DE QUEEN       CLEAR     75  75 100 CALM      29.99S FOG
$$

ARZ056-057-069-270900-
SOUTHEAST ARKANSAS

CITY           SKY/WX    TMP DP  RH WIND       PRES   REMARKS
PINE BLUFF     PTCLDY    78  74  87 SW5       30.00F
STUTTGART      CLEAR     79  64  61 S6        30.00F
MONTICELLO     CLOUDY    81  72  74 SW6       30.01F HX  85

$$





USA.gov is the U.S. government's official web portal to all federal, state and local government web resources and services.